Regional Weather Roundup
Issued by NWS

Home | Current Version | Previous Version | Graphics & Text | Print | Product List | Glossary On
Versions: 1 2 3 4 5 6 7 8 9 10 11 12 13 14 15 16 17 18 19 20 21 22 23 24 25 26 27 28 29 30 31 32 33 34 35 36 37 38 39 40 41 42 43 44 45 46 47 48 49 50
000
ASUS43 KOAX 242110
RWRNE

WEATHER ROUNDUP FOR NEBRASKA
NATIONAL WEATHER SERVICE OMAHA NE
400 PM CDT SUN SEP 24 2017

NOTES: SATELLITE DATA IS BEING USED TO AUGMENT CLOUD COVER ABOVE
       12000 FEET.
       "FAIR" INDICATES FEW OR NO CLOUDS BELOW 12,000 FEET WITH NO
       SIGNIFICANT WEATHER AND/OR OBSTRUCTIONS TO VISIBILITY.


NEZ001>004-019>022-054>056-242200-
NEBRASKA PANHANDLE

CITY           SKY/WX    TMP DP  RH WIND       PRES   REMARKS
SCOTTSBLUFF    CLOUDY    54  42  64 NE13      30.02S
ALLIANCE       CLOUDY    51  43  74 NE14      30.01F
CHADRON        CLOUDY    51  42  71 NE15      30.04S
GORDON         CLOUDY    50  45  83 N12       30.03S
KIMBALL        DRIZZLE   48  45  88 E6        30.03R
SIDNEY         CLOUDY    53  45  74 NE13      30.01S
$$

NEZ057>060-069>072-079>082-242200-
SOUTHWEST NEBRASKA

CITY           SKY/WX    TMP DP  RH WIND       PRES   REMARKS
NORTH PLATTE   LGT RAIN  57  51  80 NE10      29.98S
IMPERIAL       LGT RAIN  53  49  86 NE12      29.98F
LEXINGTON      CLOUDY    57  55  92 NE9       29.97S
MCCOOK         LGT RAIN  56  55  97 NE8       29.97R FOG
OGALLALA       CLOUDY    55  49  81 E9        30.01R
$$

NEZ005>010-023>029-035>040-094-242200-
NORTH CENTRAL NEBRASKA

CITY           SKY/WX    TMP DP  RH WIND       PRES   REMARKS
VALENTINE      CLOUDY    55  49  80 NW12      30.02R
AINSWORTH      CLOUDY    54  50  87 N12       30.01S
BROKEN BOW     CLOUDY    57  51  80 N10       29.97F
O`NEILL        CLOUDY    56  55  97 NW10      29.99S
ORD            CLOUDY    56  51  84 N12       29.96S
THEDFORD       CLOUDY    56  49  78 N9        30.00F
$$

NEZ041-046>049-061>064-073>077-083>087-242200-
SOUTH CENTRAL NEBRASKA

CITY           SKY/WX    TMP DP  RH WIND       PRES   REMARKS
GRAND ISLAND   LGT RAIN  61  58  90 NW13      29.94S
AURORA         CLOUDY    69  62  77 NW14G22   29.92R
HASTINGS       LGT RAIN  64  61  90 NW13      29.93S
HEBRON         MOSUNNY   87  58  37 S13G21    29.86F
HOLDREGE       LGT RAIN  57  55  95 N8        29.95F
KEARNEY        LGT RAIN  57  56  96 N12       29.96S
YORK           CLOUDY    77  64  65 NW18G24   29.89R
$$

NEZ011>018-030>034-042>045-242200-
NORTHEAST NEBRASKA

CITY           SKY/WX    TMP DP  RH WIND       PRES   REMARKS
NORFOLK        MOSUNNY   66  57  72 NW17      29.92R
ALBION         CLOUDY    59  58  95 NW13      29.94F
BLAIR          PTSUNNY   80  60  50 CALM      29.88F
COLUMBUS       TSTM      70  66  87 VRB6      29.91R
FREMONT        CLOUDY    82  62  51 S9        29.86F
TEKAMAH        PTSUNNY   78  59  51 S12       29.86R
WAYNE          PTSUNNY   72  65  78 NW16G22   29.90R
$$

NEZ050>053-065>068-078-088>093-242200-
SOUTHEAST NEBRASKA

CITY           SKY/WX    TMP DP  RH WIND       PRES   REMARKS
LINCOLN        CLOUDY    81  64  56 SE15      29.88R
OMAHA EPPLEY   PTSUNNY   78  70  76 N9        29.86F
BEATRICE       LGT RAIN  80  65  61 S8        29.88F
FALLS CITY     MOSUNNY   89  63  41 S17G24    29.88F HX  90
NEBRASKA CITY  MOSUNNY   87  62  42 S13       29.88S
PLATTSMOUTH    PTSUNNY   88  63  44 S22G28    29.88R
$$

NEZ044-045-051>053-067-242200-
OMAHA AREA

CITY           SKY/WX    TMP DP  RH WIND       PRES   REMARKS
OMAHA EPPLEY   PTSUNNY   78  70  76 N9        29.86F
BLAIR          PTSUNNY   80  60  50 CALM      29.88F
FREMONT        CLOUDY    82  62  51 S9        29.86F
MILLARD        CLOUDY    79  66  64 W17G25    29.91R
OFFUTT AFB     MOSUNNY   86  64  48 SW22G30   29.86S
PLATTSMOUTH    PTSUNNY   88  63  44 S22G28    29.88R
WAHOO          FAIR      81  63  53 S16G25    29.87S
$$




USA.gov is the U.S. government's official web portal to all federal, state and local government web resources and services.